Location: City of Moscow
(46.7306°N, 116.9989°W)
Time: 02:27:54
(UTC+00:00)

Cosmos 1626 Rocket - Pass Details

Date: 20 March 2026
Orbit: 596 x 624 km, 82.5° (Epoch: 13 April)

Event Time Altitude Azimuth Distance (km) Brightness Sun altitude
Rises 12:25:13 0° 344° (NNW) 2,889 7.0 -15.3°
Reaches altitude 10° 12:27:33 10° 337° (NNW) 1,974 6.1 -14.9°
Maximum altitude 12:31:38 40° 268° (W) 898 3.9 -14.2°
Drops below altitude 10° 12:35:39 10° 199° (SSW) 1,942 5.8 -13.6°
Sets 12:37:56 0° 192° (SSW) 2,836 6.7 -13.2°
